Back to catalog

STARLINK-35077

AliveCommunicationsSSO
NORAD 65529·PAYLOAD·🇺🇸 United States

Launched Sep 6, 2025 from Cape Canaveral Space Force Station

Loading…

Next Passes (next 24 hours)

TLE

FreshSource: CelesTrak SupGP

Epoch: Sep 14, 2026, 14:40 UTC

1 65529C 25200K   26257.61159722  .00082564  00000+0  25625-2 0  2574
2 65529  97.2855 324.0229 0000796  97.4600 313.3445 15.33404347    13

Track STARLINK-35077 in real time with AllMySat

Download on the App Store